Location: Campillo
(40.8621°N, 4.2488°W)
Time: 16:44:41
(UTC+00:00)

Cosmos 158 Rocket - Pass Details

Date: 29 September 2021
Orbit: 699 x 792 km, 74.0° (Epoch: 24 October)

Event Time Altitude Azimuth Distance (km) Brightness Sun altitude
Rises 18:23:31 0° 351° (N) 3,149 7.3 -4.9°
Reaches altitude 10° 18:26:17 10° 5° (N) 2,209 6.4 -5.4°
Maximum altitude 18:30:21 25° 60° (ENE) 1,423 5.0 -6.2°
Drops below altitude 10° 18:34:21 10° 115° (ESE) 2,166 5.8 -6.9°
Enters shadow 18:35:53 - 124° (SE) 2,670 6.3 -7.2°
